Weather History for New Orleans Lakefront, LA

Change the Weather History Date:

Wednesday, February 13, 2013

  Actual Average Record
Temperature  
Mean Temperature 55 °F 56 °F  
Max Temperature 62 °F 65 °F 81 °F (1959)
Min Temperature 47 °F 48 °F 25 °F (1958)
Degree Days  
Heating Degree Days 10 9  
Month to date heating degree days 66 135  
Since 1 July heating degree days 751 991  
Cooling Degree Days 0 1  
Month to date cooling degree days 7 13  
Year to date cooling degree days 32 29  
Growing Degree Days 8 (Base 50)    
Moisture  
Dew Point 47 °F    
Average Humidity 78    
Maximum Humidity 90    
Minimum Humidity 66    
Precipitation  
Precipitation 0.08 in 0.20 in 2.80 in (1950)
Month to date precipitation 3.21 2.57  
Year to date precipitation 9.80 7.72  
Snow  
Snow 0.00 in - - ()
Month to date snowfall 0.0  
Since 1 July snowfall 0.0  
Snow Depth 0.00 in    
Sea Level Pressure  
Sea Level Pressure 29.97 in    
Wind  
Wind Speed 10 mph (NNW)    
Max Wind Speed 22 mph    
Max Gust Speed 31 mph    
Visibility 10 miles    
Events Rain    
T = Trace of Precipitation, MM = Missing Value Source: NWS Daily Summary

Daily Weather History Graph

Daily Weather History Graph

Search for Another Location

Airport:

Trip Planner

Search our weather history database for the weather conditions in past years. The results will help you decide how hot, cold, wet, or windy it might be!

Date:

Astronomy

Feb. 13, 2013 Rise Set
Actual Time 6:41 AM CST 5:47 PM CST
Civil Twilight 6:16 AM CST 6:12 PM CST
Nautical Twilight 5:48 AM CST 6:40 PM CST
Astronomical Twilight 5:20 AM CST 7:08 PM CST
Moon 8:30 AM CST (2/13) 9:27 PM CST (2/13)
Length of Visible Light 11h 55m
Length of Day
11h 05m
Waxing Crescent, 14% of the Moon is Illuminated
Feb 13
Waxing Crescent
Feb 17
First Quarter
Feb 25
Full
Mar 4
Last Quarter
Mar 11
New

Hourly Weather History & Observations

Time (CST) Temp. Dew Point Humidity Pressure Visibility Wind Dir Wind Speed Gust Speed Precip Events Conditions
12:35 AM 64.4 °F 57.2 °F 77% 29.86 in 10.0 mi WNW 26.5 mph - N/A   Partly Cloudy
12:53 AM 63.0 °F 55.9 °F 78% 29.85 in 10.0 mi NW 27.6 mph 33.4 mph N/A   Scattered Clouds
1:00 AM 62.6 °F 55.4 °F 77% 29.87 in 10.0 mi NW 27.6 mph 32.2 mph N/A   Mostly Cloudy
1:38 AM 60.8 °F 53.6 °F 77% 29.88 in 10.0 mi WNW 23.0 mph - N/A   Scattered Clouds
1:53 AM 60.1 °F 53.1 °F 78% 29.86 in 10.0 mi NW 24.2 mph - N/A   Partly Cloudy
2:53 AM 60.1 °F 52.0 °F 75% 29.88 in 10.0 mi NW 19.6 mph - N/A   Partly Cloudy
3:53 AM 60.1 °F 52.0 °F 75% 29.89 in 10.0 mi WNW 23.0 mph - N/A   Clear
4:53 AM 59.0 °F 51.1 °F 75% 29.89 in 10.0 mi NW 16.1 mph - N/A   Scattered Clouds
5:53 AM 59.0 °F 48.9 °F 69% 29.93 in 10.0 mi NW 18.4 mph - N/A   Clear
6:53 AM 59.0 °F 50.0 °F 72% 29.94 in 10.0 mi NW 15.0 mph - N/A   Clear
7:53 AM 59.0 °F 48.9 °F 69% 29.96 in 10.0 mi NW 20.7 mph - N/A   Scattered Clouds
8:53 AM 57.9 °F 48.9 °F 72% 29.94 in 10.0 mi North - - N/A   Mostly Cloudy
9:53 AM 59.0 °F 48.0 °F 67% 29.98 in 10.0 mi NW 19.6 mph 28.8 mph N/A   Overcast
10:07 AM 59.0 °F 48.2 °F 67% 30.00 in 10.0 mi NW 24.2 mph - N/A   Mostly Cloudy
10:53 AM 57.0 °F 48.0 °F 72% 29.99 in 10.0 mi NW 19.6 mph - 0.00 in   Overcast
11:53 AM 55.0 °F 48.0 °F 77% 29.99 in 8.0 mi NNW 21.9 mph - 0.02 in Rain Light Rain
12:27 PM 53.6 °F 44.6 °F 72% 30.02 in 4.0 mi NNW 20.7 mph - 0.05 in Rain Rain
12:39 PM 53.6 °F 44.6 °F 72% 30.02 in 6.0 mi NNW 17.3 mph - 0.07 in Rain Light Rain
12:53 PM 53.1 °F 45.0 °F 74% 29.99 in 10.0 mi NNW 16.1 mph - 0.08 in Rain Light Rain
1:53 PM 53.1 °F 45.0 °F 74% 29.99 in 10.0 mi NNW 10.4 mph - 0.02 in   Overcast
2:13 PM 53.6 °F 44.6 °F 72% 29.99 in 10.0 mi NNW 12.7 mph 21.9 mph 0.01 in Rain Light Rain
2:27 PM 53.6 °F 44.6 °F 72% 30.01 in 10.0 mi NNW 16.1 mph 20.7 mph 0.01 in   Mostly Cloudy
2:53 PM 54.0 °F 43.0 °F 66% 29.99 in 10.0 mi NNW 12.7 mph - 0.01 in   Mostly Cloudy
3:53 PM 54.0 °F 44.1 °F 69% 30.00 in 10.0 mi NNW 8.1 mph - N/A   Partly Cloudy
4:39 PM 55.4 °F 42.8 °F 63% 30.01 in 10.0 mi NNW 13.8 mph - N/A   Mostly Cloudy
4:53 PM 55.0 °F 43.0 °F 64% 29.99 in 10.0 mi NNW 13.8 mph - N/A   Mostly Cloudy
5:27 PM 55.4 °F 44.6 °F 67% 30.01 in 10.0 mi North 12.7 mph - N/A   Mostly Cloudy
5:40 PM 55.4 °F 42.8 °F 63% 30.01 in 10.0 mi North 12.7 mph - N/A   Scattered Clouds
5:53 PM 55.0 °F 43.0 °F 64% 30.00 in 10.0 mi North 11.5 mph - N/A   Scattered Clouds
6:53 PM 55.9 °F 43.0 °F 62% 30.01 in 10.0 mi North 12.7 mph - N/A   Mostly Cloudy
7:53 PM 55.9 °F 39.9 °F 55% 30.04 in 10.0 mi North 16.1 mph - N/A   Partly Cloudy
8:53 PM 55.9 °F 42.1 °F 60% 30.05 in 10.0 mi NNE 15.0 mph - N/A   Partly Cloudy
9:53 PM 55.0 °F 39.9 °F 57% 30.06 in 10.0 mi North 16.1 mph - N/A   Clear
10:53 PM 54.0 °F 39.9 °F 59% 30.06 in 10.0 mi NNE 18.4 mph - N/A   Clear
11:53 PM 53.1 °F 41.0 °F 64% 30.05 in 10.0 mi NNE 18.4 mph - N/A   Clear